N115MF NCRG-PHNL

Flight info

Callsign N115MF
Flight time N/A
Altitude 40000
Route TOKET1P PULOS B596 OTURI/N0458F400 B596 RAGDE/N0450F430 B596 DOVRR JULLE5
Aircraft FA50/M-SDFGHIM1RWXY/H

Departure

Time 2026-04-21 02:54
Airport Rarotonga International Airport (NCRG)

Arrival

Time N/A
Airport Daniel K. Inouye International Airport (PHNL)
Time Latitude Longitude Altitude Speed Heading
2026-04-21 02:51 -21.20066 -159.79775 26 ft 0 kts
2026-04-21 02:52 -21.20060 -159.79785 26 ft 6 kts 244°
2026-04-21 02:52 -21.20165 -159.79817 26 ft 23 kts 182°
2026-04-21 02:52 -21.20263 -159.79899 26 ft 30 kts 270°
2026-04-21 02:53 -21.20261 -159.80203 26 ft 52 kts 267°
2026-04-21 02:53 -21.20265 -159.80573 26 ft 47 kts 269°
2026-04-21 02:53 -21.20259 -159.80910 26 ft 32 kts 288°
2026-04-21 02:53 -21.20265 -159.80917 26 ft 17 kts 81°
2026-04-21 02:54 -21.20262 -159.80502 26 ft 93 kts 90°
2026-04-21 02:54 -21.20262 -159.79632 225 ft 129 kts 91°
2026-04-21 02:54 -21.20161 -159.78626 801 ft 145 kts 75°
2026-04-21 02:54 -21.19954 -159.77887 1041 ft 170 kts 74°
2026-04-21 02:55 -21.19576 -159.76551 1382 ft 202 kts 75°
2026-04-21 02:55 -21.19168 -159.75068 2076 ft 211 kts 75°
2026-04-21 02:55 -21.18605 -159.73594 2842 ft 219 kts 53°
2026-04-21 02:55 -21.17312 -159.72723 3641 ft 231 kts 15°
2026-04-21 02:56 -21.15613 -159.72702 4010 ft 257 kts 354°
2026-04-21 02:56 -21.11970 -159.73415 5329 ft 268 kts 351°
2026-04-21 02:56 -21.10152 -159.73739 6068 ft 269 kts 352°
2026-04-21 02:57 -21.08283 -159.74002 6796 ft 272 kts 354°
2026-04-21 02:57 -21.06380 -159.74210 7495 ft 276 kts 355°
2026-04-21 02:57 -21.04454 -159.74373 8194 ft 279 kts 356°
2026-04-21 02:57 -21.02500 -159.74496 8907 ft 283 kts 357°
2026-04-21 02:58 -21.00514 -159.74599 9676 ft 286 kts 357°
2026-04-21 02:58 -20.98519 -159.74688 10477 ft 287 kts 357°
2026-04-21 02:58 -20.96513 -159.74764 11207 ft 290 kts 356°
2026-04-21 02:58 -20.94475 -159.74835 11827 ft 296 kts 356°
2026-04-21 02:59 -20.92391 -159.74903 12368 ft 303 kts 356°
2026-04-21 02:59 -20.90261 -159.74969 12879 ft 310 kts 357°
2026-04-21 02:59 -20.88116 -159.75033 13430 ft 313 kts 357°
2026-04-21 02:59 -20.85928 -159.75093 13971 ft 316 kts 357°
2026-04-21 03:00 -20.83722 -159.75153 14509 ft 318 kts 356°
2026-04-21 03:00 -20.81504 -159.75213 15023 ft 320 kts 356°
2026-04-21 03:00 -20.79272 -159.75272 15484 ft 322 kts 356°
2026-04-21 03:00 -20.77030 -159.75331 15940 ft 323 kts 356°
2026-04-21 03:01 -20.74769 -159.75390 16374 ft 325 kts 356°
2026-04-21 03:01 -20.72504 -159.75447 16773 ft 327 kts 356°
2026-04-21 03:01 -20.70225 -159.75526 17159 ft 328 kts 355°
2026-04-21 03:01 -20.67969 -159.75674 17524 ft 329 kts 353°
2026-04-21 03:02 -20.65653 -159.75864 17875 ft 331 kts 353°
2026-04-21 03:02 -20.63356 -159.76071 18246 ft 332 kts 353°
2026-04-21 03:02 -20.61077 -159.76283 18607 ft 334 kts 352°
2026-04-21 03:02 -20.58748 -159.76502 19003 ft 336 kts 352°
2026-04-21 03:03 -20.56409 -159.76719 19404 ft 339 kts 352°
2026-04-21 03:03 -20.54048 -159.76934 19842 ft 341 kts 352°
2026-04-21 03:03 -20.51674 -159.77154 20284 ft 343 kts 352°
2026-04-21 03:03 -20.49282 -159.77375 20752 ft 346 kts 352°
2026-04-21 03:04 -20.46870 -159.77598 21240 ft 349 kts 352°
2026-04-21 03:04 -20.44469 -159.77818 21755 ft 352 kts 351°
2026-04-21 03:04 -20.42020 -159.78043 22295 ft 355 kts 351°
2026-04-21 03:04 -20.39547 -159.78269 22850 ft 358 kts 351°
2026-04-21 03:05 -20.37049 -159.78496 23426 ft 362 kts 351°
2026-04-21 03:05 -20.34528 -159.78725 24032 ft 366 kts 351°
2026-04-21 03:05 -20.31972 -159.78957 24639 ft 370 kts 351°
2026-04-21 03:05 -20.29383 -159.79193 25222 ft 376 kts 351°
2026-04-21 03:06 -20.26756 -159.79432 25842 ft 382 kts 352°
2026-04-21 03:06 -20.24083 -159.79674 26480 ft 387 kts 352°
2026-04-21 03:06 -20.21381 -159.79918 27101 ft 392 kts 352°
2026-04-21 03:06 -20.18667 -159.80162 27666 ft 397 kts 352°
2026-04-21 03:07 -20.15858 -159.80414 28214 ft 402 kts 352°
2026-04-21 03:07 -20.13093 -159.80661 28710 ft 406 kts 352°
2026-04-21 03:07 -20.10255 -159.80914 29179 ft 410 kts 352°
2026-04-21 03:07 -20.07387 -159.81169 29627 ft 414 kts 353°
2026-04-21 03:08 -20.04503 -159.81409 30046 ft 418 kts 354°
2026-04-21 03:08 -20.01574 -159.81514 30447 ft 423 kts 357°
2026-04-21 03:08 -19.98621 -159.81514 30820 ft 426 kts 359°
2026-04-21 03:08 -19.95646 -159.81452 31166 ft 430 kts 359°
2026-04-21 03:09 -19.92643 -159.81356 31504 ft 432 kts
2026-04-21 03:09 -19.89628 -159.81242 31814 ft 435 kts
2026-04-21 03:09 -19.86587 -159.81119 32117 ft 437 kts
2026-04-21 03:09 -19.83537 -159.80993 32388 ft 440 kts
2026-04-21 03:10 -19.80466 -159.80866 32650 ft 442 kts
2026-04-21 03:10 -19.77423 -159.80742 32897 ft 445 kts
2026-04-21 03:10 -19.74323 -159.80618 33133 ft 447 kts
2026-04-21 03:10 -19.71205 -159.80496 33358 ft 449 kts
2026-04-21 03:11 -19.68077 -159.80375 33574 ft 450 kts
2026-04-21 03:11 -19.64936 -159.80256 33761 ft 452 kts
2026-04-21 03:11 -19.61791 -159.80139 34004 ft 452 kts
2026-04-21 03:11 -19.58639 -159.80023 34187 ft 454 kts
2026-04-21 03:12 -19.55469 -159.79907 34340 ft 456 kts
2026-04-21 03:12 -19.52296 -159.79792 34512 ft 457 kts
2026-04-21 03:12 -19.49109 -159.79678 34659 ft 458 kts
2026-04-21 03:12 -19.45916 -159.79563 34803 ft 459 kts
2026-04-21 03:13 -19.42717 -159.79450 34942 ft 460 kts
2026-04-21 03:13 -19.39514 -159.79336 35048 ft 462 kts
2026-04-21 03:13 -19.36332 -159.79224 35180 ft 463 kts
2026-04-21 03:13 -19.33108 -159.79110 35290 ft 464 kts
2026-04-21 03:14 -19.26638 -159.78883 35495 ft 466 kts
2026-04-21 03:14 -19.20161 -159.78656 35894 ft 461 kts
2026-04-21 03:15 -19.16972 -159.78544 36282 ft 455 kts
2026-04-21 03:15 -19.13833 -159.78433 36675 ft 449 kts
2026-04-21 03:15 -19.10731 -159.78323 37069 ft 443 kts
2026-04-21 03:15 -19.07670 -159.78215 37464 ft 437 kts
2026-04-21 03:16 -19.04657 -159.78110 37857 ft 431 kts
2026-04-21 03:16 -19.01677 -159.78005 38251 ft 425 kts
2026-04-21 03:16 -18.98746 -159.77903 38644 ft 419 kts
2026-04-21 03:16 -18.95850 -159.77802 39037 ft 413 kts
2026-04-21 03:17 -18.92999 -159.77703 39430 ft 407 kts
2026-04-21 03:17 -18.90195 -159.77606 39815 ft 401 kts
2026-04-21 03:17 -18.84566 -159.77414 39957 ft 408 kts
2026-04-21 03:18 -18.78832 -159.77127 39973 ft 417 kts
2026-04-21 03:18 -18.73019 -159.76760 39974 ft 425 kts
2026-04-21 03:19 -18.67074 -159.76362 39973 ft 431 kts
2026-04-21 03:19 -18.61036 -159.75954 39972 ft 437 kts
2026-04-21 03:20 -18.54943 -159.75543 39972 ft 441 kts
2026-04-21 03:20 -18.48826 -159.75132 39971 ft 445 kts
2026-04-21 03:21 -18.42625 -159.74717 39971 ft 448 kts
2026-04-21 03:21 -18.36386 -159.74302 39971 ft 450 kts
2026-04-21 03:22 -18.30125 -159.73886 39970 ft 452 kts
2026-04-21 03:22 -18.23828 -159.73468 39970 ft 453 kts
2026-04-21 03:23 -18.17526 -159.73052 39970 ft 454 kts
2026-04-21 03:23 -18.11246 -159.72637 39970 ft 455 kts
2026-04-21 03:24 -18.04915 -159.72220 39970 ft 456 kts
2026-04-21 03:24 -17.98569 -159.71801 39969 ft 456 kts
2026-04-21 03:25 -17.92227 -159.71384 39969 ft 457 kts
2026-04-21 03:25 -17.85917 -159.70969 39969 ft 457 kts
2026-04-21 03:26 -17.79566 -159.70552 39968 ft 457 kts
2026-04-21 03:26 -17.73213 -159.70135 39968 ft 457 kts
2026-04-21 03:27 -17.66852 -159.69718 39968 ft 458 kts
2026-04-21 03:27 -17.60487 -159.69301 39968 ft 458 kts
2026-04-21 03:28 -17.54157 -159.68887 39967 ft 458 kts
2026-04-21 03:28 -17.47784 -159.68470 39967 ft 459 kts
2026-04-21 03:29 -17.41408 -159.68053 39966 ft 459 kts
2026-04-21 03:29 -17.35028 -159.67636 39966 ft 459 kts
2026-04-21 03:30 -17.28682 -159.67222 39966 ft 459 kts
2026-04-21 03:30 -17.22297 -159.66805 39965 ft 460 kts
2026-04-21 03:31 -17.15907 -159.66389 39965 ft 460 kts
2026-04-21 03:31 -17.09512 -159.65972 39964 ft 460 kts
2026-04-21 03:32 -17.03117 -159.65556 39964 ft 460 kts
2026-04-21 03:32 -16.96746 -159.65141 39963 ft 461 kts
2026-04-21 03:33 -16.90339 -159.64725 39963 ft 461 kts
2026-04-21 03:33 -16.83933 -159.64309 39962 ft 461 kts
2026-04-21 03:34 -16.77529 -159.63893 39962 ft 461 kts
2026-04-21 03:34 -16.71161 -159.63479 39959 ft 461 kts
2026-04-21 03:35 -16.64746 -159.63064 39958 ft 461 kts
2026-04-21 03:35 -16.58333 -159.62648 39957 ft 462 kts
2026-04-21 03:36 -16.51910 -159.62232 39956 ft 462 kts
2026-04-21 03:36 -16.45494 -159.61817 39955 ft 462 kts
2026-04-21 03:37 -16.39073 -159.61401 39954 ft 462 kts
2026-04-21 03:37 -16.32696 -159.60989 39953 ft 462 kts
2026-04-21 03:38 -16.26274 -159.60575 39952 ft 462 kts
2026-04-21 03:38 -16.19851 -159.60160 39951 ft 462 kts
2026-04-21 03:39 -16.13418 -159.59745 39951 ft 462 kts
2026-04-21 03:39 -16.07039 -159.59334 39949 ft 462 kts
2026-04-21 03:40 -16.00616 -159.58920 39949 ft 462 kts
2026-04-21 03:40 -15.94181 -159.58506 39947 ft 462 kts
2026-04-21 03:41 -15.87760 -159.58093 39946 ft 462 kts
2026-04-21 03:41 -15.81373 -159.57682 39945 ft 462 kts
2026-04-21 03:42 -15.74951 -159.57269 39944 ft 462 kts
2026-04-21 03:42 -15.68527 -159.56857 39943 ft 462 kts
2026-04-21 03:43 -15.63182 -159.56514 39942 ft 462 kts
2026-04-21 03:43 -15.55720 -159.56035 39940 ft 462 kts
2026-04-21 03:44 -15.50345 -159.55691 39939 ft 462 kts
2026-04-21 03:44 -15.43958 -159.55281 39938 ft 462 kts
2026-04-21 03:45 -15.37546 -159.54871 39937 ft 462 kts
2026-04-21 03:45 -15.31137 -159.54461 39936 ft 461 kts
2026-04-21 03:46 -15.24719 -159.54050 39934 ft 461 kts
2026-04-21 03:46 -15.18313 -159.53641 39933 ft 461 kts
2026-04-21 03:47 -15.11917 -159.53232 39932 ft 460 kts
2026-04-21 03:47 -15.05549 -159.52826 39930 ft 460 kts
2026-04-21 03:48 -14.99153 -159.52441 39929 ft 460 kts
2026-04-21 03:48 -14.92753 -159.52121 39928 ft 460 kts
2026-04-21 03:49 -14.86389 -159.51828 39926 ft 459 kts
2026-04-21 03:49 -14.79984 -159.51541 39925 ft 459 kts
2026-04-21 03:50 -14.73604 -159.51256 39923 ft 459 kts
2026-04-21 03:50 -14.67260 -159.50972 39922 ft 458 kts
2026-04-21 03:51 -14.60889 -159.50687 39921 ft 458 kts
2026-04-21 03:51 -14.54529 -159.50401 39919 ft 458 kts
2026-04-21 03:52 -14.48164 -159.50114 39918 ft 457 kts
2026-04-21 03:52 -14.41804 -159.49827 39917 ft 457 kts
2026-04-21 03:53 -14.35442 -159.49540 39915 ft 457 kts
2026-04-21 03:53 -14.29133 -159.49255 39914 ft 456 kts
2026-04-21 03:54 -14.22776 -159.48968 39912 ft 456 kts
2026-04-21 03:54 -14.16420 -159.48680 39911 ft 456 kts
2026-04-21 03:55 -14.10080 -159.48394 39909 ft 456 kts
2026-04-21 03:55 -14.03741 -159.48108 39907 ft 456 kts
2026-04-21 03:56 -13.97405 -159.47822 39907 ft 455 kts
2026-04-21 03:56 -13.91096 -159.47538 39905 ft 455 kts
2026-04-21 03:57 -13.84768 -159.47253 39904 ft 455 kts
2026-04-21 03:57 -13.78443 -159.46968 39903 ft 455 kts
2026-04-21 03:58 -13.72153 -159.46684 39901 ft 454 kts
2026-04-21 03:58 -13.65840 -159.46400 39900 ft 454 kts
2026-04-21 03:59 -13.59521 -159.46116 39899 ft 454 kts
2026-04-21 04:00 -13.50048 -159.45690 39897 ft 453 kts
2026-04-21 04:00 -13.43780 -159.45408 39896 ft 453 kts
2026-04-21 04:01 -13.37477 -159.45125 39895 ft 453 kts
2026-04-21 04:01 -13.31177 -159.44842 39893 ft 453 kts
2026-04-21 04:02 -13.24873 -159.44560 39892 ft 453 kts
2026-04-21 04:02 -13.18573 -159.44277 39891 ft 453 kts
2026-04-21 04:03 -13.12311 -159.43997 39890 ft 452 kts
2026-04-21 04:03 -13.06015 -159.43715 39889 ft 452 kts
2026-04-21 04:04 -12.99731 -159.43434 39888 ft 452 kts
2026-04-21 04:04 -12.93441 -159.43152 39887 ft 451 kts
2026-04-21 04:05 -12.87198 -159.42873 39886 ft 451 kts
2026-04-21 04:05 -12.80916 -159.42592 39885 ft 451 kts
2026-04-21 04:06 -12.74644 -159.42312 39884 ft 451 kts
2026-04-21 04:06 -12.68376 -159.42032 39883 ft 450 kts
2026-04-21 04:07 -12.62108 -159.41752 39882 ft 450 kts
2026-04-21 04:07 -12.55884 -159.41475 39881 ft 450 kts
2026-04-21 04:08 -12.49625 -159.41196 39880 ft 450 kts
2026-04-21 04:08 -12.43372 -159.40917 39879 ft 449 kts
2026-04-21 04:09 -12.37126 -159.40639 39879 ft 449 kts
2026-04-21 04:09 -12.30881 -159.40361 39878 ft 449 kts
2026-04-21 04:10 -12.24640 -159.40083 39877 ft 449 kts
2026-04-21 04:10 -12.18395 -159.39805 39877 ft 449 kts
2026-04-21 04:11 -12.12159 -159.39528 39876 ft 448 kts
2026-04-21 04:11 -12.05931 -159.39251 39883 ft 448 kts
2026-04-21 04:12 -11.99699 -159.38974 39893 ft 448 kts
2026-04-21 04:12 -11.93508 -159.38700 39894 ft 447 kts
2026-04-21 04:13 -11.87289 -159.38424 39893 ft 447 kts
2026-04-21 04:13 -11.81071 -159.38148 39892 ft 447 kts
2026-04-21 04:14 -11.74861 -159.37873 39892 ft 446 kts
2026-04-21 04:14 -11.68653 -159.37597 39891 ft 446 kts
2026-04-21 04:15 -11.62480 -159.37324 39891 ft 446 kts
2026-04-21 04:15 -11.56266 -159.37049 39891 ft 446 kts
2026-04-21 04:16 -11.50062 -159.36774 39890 ft 446 kts
2026-04-21 04:16 -11.43848 -159.36499 39890 ft 446 kts
2026-04-21 04:17 -11.37645 -159.36225 39889 ft 446 kts
2026-04-21 04:17 -11.31475 -159.35952 39889 ft 446 kts
2026-04-21 04:18 -11.25270 -159.35678 39889 ft 446 kts
2026-04-21 04:18 -11.19067 -159.35404 39888 ft 446 kts
2026-04-21 04:19 -11.12854 -159.35130 39888 ft 446 kts
2026-04-21 04:19 -11.06646 -159.34856 39888 ft 446 kts
2026-04-21 04:20 -11.00445 -159.34582 39888 ft 446 kts
2026-04-21 04:20 -10.94272 -159.34310 39885 ft 446 kts
2026-04-21 04:21 -10.88055 -159.34036 39884 ft 446 kts
2026-04-21 04:21 -10.81850 -159.33763 39884 ft 446 kts
2026-04-21 04:22 -10.75676 -159.33491 39884 ft 446 kts
2026-04-21 04:22 -10.69476 -159.33218 39884 ft 446 kts
2026-04-21 04:23 -10.63273 -159.32945 39884 ft 445 kts
2026-04-21 04:23 -10.57077 -159.32673 39883 ft 445 kts
2026-04-21 04:24 -10.50875 -159.32400 39883 ft 445 kts
2026-04-21 04:24 -10.44725 -159.32130 39883 ft 445 kts
2026-04-21 04:25 -10.38533 -159.31858 39883 ft 445 kts
2026-04-21 04:25 -10.32338 -159.31586 39875 ft 445 kts
2026-04-21 04:26 -10.26138 -159.31314 39873 ft 445 kts
2026-04-21 04:26 -10.19936 -159.31041 39873 ft 445 kts
2026-04-21 04:27 -10.13748 -159.30770 39873 ft 445 kts
2026-04-21 04:27 -10.07596 -159.30500 39873 ft 445 kts
2026-04-21 04:28 -10.01407 -159.30229 39879 ft 445 kts
2026-04-21 04:28 -9.95213 -159.29959 39883 ft 445 kts
2026-04-21 04:29 -9.89025 -159.29689 39883 ft 445 kts
2026-04-21 04:29 -9.82837 -159.29420 39883 ft 445 kts
2026-04-21 04:30 -9.76651 -159.29151 39881 ft 445 kts
2026-04-21 04:30 -9.70465 -159.28883 39873 ft 445 kts
2026-04-21 04:31 -9.64309 -159.28615 39872 ft 445 kts
2026-04-21 04:31 -9.59125 -159.28390 39872 ft 445 kts
2026-04-21 04:32 -9.52972 -159.28123 39873 ft 445 kts
2026-04-21 04:32 -9.46786 -159.27854 39873 ft 445 kts
2026-04-21 04:33 -9.40604 -159.27586 39874 ft 445 kts
2026-04-21 04:33 -9.34417 -159.27317 39874 ft 445 kts
2026-04-21 04:34 -9.28226 -159.27049 39874 ft 445 kts
2026-04-21 04:34 -9.22043 -159.26781 39875 ft 444 kts
2026-04-21 04:35 -9.15889 -159.26514 39875 ft 444 kts
2026-04-21 04:35 -9.13836 -159.26425 39875 ft 444 kts
2026-04-21 04:36 -8.97384 -159.25713 39875 ft 444 kts
2026-04-21 04:37 -8.91196 -159.25445 39875 ft 444 kts
2026-04-21 04:37 -8.85051 -159.25179 39875 ft 444 kts
2026-04-21 04:38 -8.78875 -159.24912 39875 ft 444 kts
2026-04-21 04:38 -8.72694 -159.24644 39875 ft 444 kts
2026-04-21 04:39 -8.66512 -159.24377 39875 ft 444 kts
2026-04-21 04:39 -8.60342 -159.24111 39875 ft 444 kts
2026-04-21 04:40 -8.54203 -159.23845 39875 ft 444 kts
2026-04-21 04:40 -8.48028 -159.23579 39875 ft 444 kts
2026-04-21 04:41 -8.41853 -159.23312 39875 ft 444 kts
2026-04-21 04:41 -8.35684 -159.23046 39875 ft 444 kts
2026-04-21 04:42 -8.29496 -159.22779 39875 ft 444 kts
2026-04-21 04:42 -8.23357 -159.22514 39875 ft 444 kts
2026-04-21 04:43 -8.17186 -159.22248 39875 ft 444 kts
2026-04-21 04:43 -8.11000 -159.21981 39875 ft 444 kts
2026-04-21 04:44 -8.04825 -159.21715 39875 ft 444 kts
2026-04-21 04:44 -7.98652 -159.21449 39875 ft 444 kts
2026-04-21 04:45 -7.92510 -159.21184 39875 ft 444 kts
2026-04-21 04:45 -7.89423 -159.21052 39875 ft 444 kts
2026-04-21 04:46 -7.73586 -159.20370 39875 ft 443 kts
2026-04-21 04:47 -7.67450 -159.20106 39875 ft 443 kts
2026-04-21 04:47 -7.66408 -159.20061 39875 ft 443 kts
2026-04-21 04:48 -7.55253 -159.19582 39874 ft 443 kts
2026-04-21 04:48 -7.49078 -159.19316 39874 ft 443 kts
2026-04-21 04:49 -7.42962 -159.19054 39874 ft 443 kts
2026-04-21 04:49 -7.36787 -159.18788 39874 ft 443 kts
2026-04-21 04:50 -7.30618 -159.18524 39874 ft 443 kts
2026-04-21 04:50 -7.24450 -159.18259 39874 ft 443 kts
2026-04-21 04:51 -7.18288 -159.17994 39874 ft 443 kts
2026-04-21 04:51 -7.12166 -159.17732 39873 ft 443 kts
2026-04-21 04:52 -7.05968 -159.17466 39873 ft 443 kts
2026-04-21 04:52 -6.99849 -159.17203 39873 ft 443 kts
2026-04-21 04:53 -6.93684 -159.16939 39873 ft 442 kts
2026-04-21 04:53 -6.87531 -159.16675 39873 ft 442 kts
2026-04-21 04:54 -6.81381 -159.16412 39873 ft 442 kts
2026-04-21 04:54 -6.75231 -159.16148 39873 ft 442 kts
2026-04-21 04:55 -6.69079 -159.15885 39873 ft 442 kts
2026-04-21 04:55 -6.62973 -159.15623 39873 ft 442 kts
2026-04-21 04:56 -6.56825 -159.15360 39872 ft 442 kts
2026-04-21 04:56 -6.50681 -159.15097 39872 ft 442 kts
2026-04-21 04:57 -6.44538 -159.14835 39872 ft 442 kts
2026-04-21 04:57 -6.38394 -159.14572 39872 ft 442 kts
2026-04-21 04:58 -6.32250 -159.14309 39872 ft 442 kts
2026-04-21 04:58 -6.26106 -159.14046 39872 ft 442 kts
2026-04-21 04:59 -6.19961 -159.13784 39872 ft 442 kts
2026-04-21 04:59 -6.13819 -159.13521 39872 ft 442 kts
2026-04-21 05:00 -6.07663 -159.13258 39872 ft 442 kts
2026-04-21 05:00 -5.98438 -159.12864 39872 ft 442 kts
2026-04-21 05:01 -5.92290 -159.12601 39871 ft 442 kts
2026-04-21 05:01 -5.86146 -159.12339 39871 ft 442 kts
2026-04-21 05:02 -5.80038 -159.12078 39871 ft 442 kts
2026-04-21 05:02 -5.73898 -159.11817 39871 ft 442 kts
2026-04-21 05:03 -5.67752 -159.11554 39871 ft 442 kts
2026-04-21 05:03 -5.61610 -159.11293 39871 ft 442 kts
2026-04-21 05:04 -5.55466 -159.11031 39871 ft 442 kts
2026-04-21 05:04 -5.49324 -159.10769 39871 ft 442 kts
2026-04-21 05:05 -5.43186 -159.10507 39871 ft 442 kts
2026-04-21 05:05 -5.37036 -159.10245 39871 ft 442 kts
2026-04-21 05:06 -5.31927 -159.10027 39871 ft 442 kts
2026-04-21 05:06 -5.25785 -159.09766 39870 ft 442 kts
2026-04-21 05:07 -5.19637 -159.09504 39870 ft 442 kts
2026-04-21 05:07 -5.13486 -159.09242 39870 ft 443 kts
2026-04-21 05:08 -5.07325 -159.08979 39870 ft 443 kts
2026-04-21 05:08 -5.01166 -159.08711 39870 ft 443 kts
2026-04-21 05:09 -4.95008 -159.08386 39870 ft 443 kts
2026-04-21 05:09 -4.88855 -159.08030 39870 ft 443 kts
2026-04-21 05:10 -4.82738 -159.07668 39870 ft 443 kts
2026-04-21 05:10 -4.76578 -159.07301 39870 ft 443 kts
2026-04-21 05:11 -4.70408 -159.06934 39869 ft 443 kts
2026-04-21 05:11 -4.64248 -159.06568 39877 ft 443 kts
2026-04-21 05:12 -4.58086 -159.06203 39878 ft 444 kts
2026-04-21 05:12 -4.51918 -159.05838 39878 ft 444 kts
2026-04-21 05:13 -4.45751 -159.05474 39878 ft 444 kts
2026-04-21 05:13 -4.39573 -159.05109 39878 ft 444 kts
2026-04-21 05:14 -4.33404 -159.04746 39878 ft 444 kts
2026-04-21 05:14 -4.27229 -159.04382 39877 ft 444 kts
2026-04-21 05:15 -4.21056 -159.04018 39877 ft 445 kts
2026-04-21 05:15 -4.14879 -159.03655 39877 ft 445 kts
2026-04-21 05:16 -4.08701 -159.03291 39877 ft 445 kts
2026-04-21 05:16 -4.02520 -159.02927 39877 ft 445 kts
2026-04-21 05:17 -3.96384 -159.02566 39877 ft 445 kts
2026-04-21 05:17 -3.90207 -159.02203 39876 ft 444 kts
2026-04-21 05:18 -3.84035 -159.01840 39876 ft 444 kts
2026-04-21 05:18 -3.77862 -159.01477 39876 ft 444 kts
2026-04-21 05:19 -3.71688 -159.01114 39876 ft 444 kts
2026-04-21 05:19 -3.65519 -159.00752 39875 ft 444 kts
2026-04-21 05:20 -3.59346 -159.00389 39875 ft 444 kts
2026-04-21 05:20 -3.53174 -159.00026 39875 ft 444 kts
2026-04-21 05:21 -3.47006 -158.99664 39874 ft 444 kts
2026-04-21 05:21 -3.40840 -158.99302 39874 ft 444 kts
2026-04-21 05:22 -3.34678 -158.98940 39874 ft 444 kts
2026-04-21 05:22 -3.28510 -158.98578 39874 ft 444 kts
2026-04-21 05:23 -3.22348 -158.98216 39873 ft 443 kts
2026-04-21 05:23 -3.16226 -158.97856 39873 ft 444 kts
2026-04-21 05:24 -3.10065 -158.97495 39873 ft 444 kts
2026-04-21 05:24 -3.03897 -158.97133 39873 ft 444 kts
2026-04-21 05:25 -2.97735 -158.96771 39872 ft 444 kts
2026-04-21 05:25 -2.91572 -158.96409 39872 ft 443 kts
2026-04-21 05:26 -2.85414 -158.96048 39872 ft 443 kts
2026-04-21 05:26 -2.79248 -158.95686 39872 ft 443 kts
2026-04-21 05:27 -2.73091 -158.95325 39871 ft 443 kts
2026-04-21 05:27 -2.66972 -158.94966 39871 ft 443 kts
2026-04-21 05:28 -2.60809 -158.94604 39871 ft 443 kts
2026-04-21 05:28 -2.54651 -158.94243 39870 ft 443 kts
2026-04-21 05:29 -2.48484 -158.93881 39870 ft 443 kts
2026-04-21 05:29 -2.42330 -158.93521 39870 ft 443 kts
2026-04-21 05:30 -2.36173 -158.93160 39869 ft 443 kts
2026-04-21 05:30 -2.30015 -158.92799 39869 ft 443 kts
2026-04-21 05:31 -2.23900 -158.92440 39869 ft 443 kts
2026-04-21 05:31 -2.17742 -158.92079 39869 ft 443 kts
2026-04-21 05:32 -2.11583 -158.91718 39868 ft 443 kts
2026-04-21 05:32 -2.05426 -158.91357 39868 ft 443 kts
2026-04-21 05:33 -1.99276 -158.90997 39868 ft 443 kts
2026-04-21 05:33 -1.93127 -158.90636 39867 ft 442 kts
2026-04-21 05:34 -1.86979 -158.90276 39867 ft 442 kts
2026-04-21 05:34 -1.80878 -158.89918 39867 ft 442 kts
2026-04-21 05:35 -1.74742 -158.89559 39866 ft 442 kts
2026-04-21 05:35 -1.68610 -158.89200 39866 ft 441 kts
2026-04-21 05:36 -1.62478 -158.88840 39866 ft 441 kts
2026-04-21 05:36 -1.56339 -158.88481 39865 ft 441 kts
2026-04-21 05:37 -1.50208 -158.88122 39865 ft 441 kts
2026-04-21 05:37 -1.44073 -158.87762 39865 ft 441 kts
2026-04-21 05:38 -1.37941 -158.87403 39864 ft 441 kts
2026-04-21 05:38 -1.31807 -158.87044 39864 ft 441 kts
2026-04-21 05:39 -1.25674 -158.86685 39864 ft 441 kts
2026-04-21 05:39 -1.19575 -158.86328 39863 ft 442 kts
2026-04-21 05:40 -1.13440 -158.85968 39863 ft 442 kts
2026-04-21 05:40 -1.07292 -158.85608 39863 ft 442 kts
2026-04-21 05:41 -1.01209 -158.85252 39862 ft 442 kts
2026-04-21 05:41 -0.95016 -158.84889 39862 ft 442 kts
2026-04-21 05:42 -0.88916 -158.84532 39862 ft 442 kts
2026-04-21 05:42 -0.82780 -158.84173 39862 ft 441 kts
2026-04-21 05:43 -0.76645 -158.83814 39861 ft 441 kts
2026-04-21 05:43 -0.70515 -158.83455 39861 ft 442 kts
2026-04-21 05:44 -0.64374 -158.83095 39861 ft 442 kts
2026-04-21 05:44 -0.58238 -158.82736 39860 ft 442 kts
2026-04-21 05:45 -0.52101 -158.82377 39860 ft 442 kts
2026-04-21 05:45 -0.45965 -158.82018 39860 ft 441 kts
2026-04-21 05:46 -0.39829 -158.81659 39859 ft 441 kts
2026-04-21 05:46 -0.33697 -158.81300 39859 ft 441 kts
2026-04-21 05:47 -0.27605 -158.80943 39859 ft 441 kts
2026-04-21 05:47 -0.21477 -158.80584 39859 ft 441 kts
2026-04-21 05:48 -0.15345 -158.80225 39859 ft 441 kts
2026-04-21 05:48 -0.09214 -158.79867 39858 ft 441 kts
2026-04-21 05:49 -0.03088 -158.79508 39858 ft 441 kts
2026-04-21 05:49 0.03043 -158.79149 39858 ft 441 kts
2026-04-21 05:50 0.09173 -158.78790 39858 ft 441 kts
2026-04-21 05:50 0.15301 -158.78431 39857 ft 441 kts
2026-04-21 05:51 0.21432 -158.78073 39857 ft 441 kts
2026-04-21 05:51 0.27568 -158.77714 39857 ft 441 kts
2026-04-21 05:52 0.33701 -158.77355 39856 ft 441 kts
2026-04-21 05:52 0.39804 -158.76997 39856 ft 442 kts
2026-04-21 05:53 0.45948 -158.76638 39856 ft 442 kts
2026-04-21 05:53 0.52084 -158.76279 39856 ft 442 kts
2026-04-21 05:54 0.58231 -158.75919 39856 ft 442 kts
2026-04-21 05:54 0.64373 -158.75559 39856 ft 442 kts
2026-04-21 05:55 0.69472 -158.75261 39856 ft 442 kts
2026-04-21 05:55 0.75614 -158.74901 39855 ft 442 kts
2026-04-21 05:56 0.81755 -158.74542 39855 ft 442 kts
2026-04-21 05:56 0.87899 -158.74182 39855 ft 442 kts
2026-04-21 05:57 0.94053 -158.73822 39855 ft 442 kts
2026-04-21 05:57 1.00207 -158.73462 39855 ft 443 kts
2026-04-21 05:58 1.06315 -158.73104 39855 ft 443 kts
2026-04-21 05:58 1.12472 -158.72743 39855 ft 443 kts
2026-04-21 05:59 1.18627 -158.72383 39855 ft 443 kts
2026-04-21 06:00 1.27869 -158.71842 39854 ft 443 kts
2026-04-21 06:00 1.34023 -158.71481 39854 ft 443 kts
2026-04-21 06:01 1.40145 -158.71123 39854 ft 443 kts
2026-04-21 06:01 1.46303 -158.70762 39854 ft 443 kts
2026-04-21 06:02 1.52459 -158.70401 39854 ft 443 kts
2026-04-21 06:02 1.58623 -158.70040 39854 ft 443 kts
2026-04-21 06:03 1.64784 -158.69679 39854 ft 443 kts
2026-04-21 06:03 1.70943 -158.69319 39854 ft 443 kts
2026-04-21 06:04 1.77072 -158.68959 39854 ft 443 kts
2026-04-21 06:04 1.83239 -158.68598 39854 ft 443 kts
2026-04-21 06:05 1.89405 -158.68237 39854 ft 443 kts
2026-04-21 06:05 1.95559 -158.67876 39854 ft 443 kts
2026-04-21 06:06 2.01726 -158.67514 39854 ft 443 kts
2026-04-21 06:06 2.07848 -158.67155 39854 ft 444 kts
2026-04-21 06:07 2.14012 -158.66794 39854 ft 444 kts
2026-04-21 06:07 2.20184 -158.66432 39854 ft 444 kts
2026-04-21 06:08 2.26352 -158.66071 39854 ft 444 kts
2026-04-21 06:08 2.32520 -158.65709 39854 ft 444 kts
2026-04-21 06:09 2.38695 -158.65347 39855 ft 444 kts
2026-04-21 06:09 2.44871 -158.64984 39855 ft 444 kts
2026-04-21 06:10 2.51002 -158.64625 39855 ft 444 kts
2026-04-21 06:10 2.57172 -158.64264 39855 ft 444 kts
2026-04-21 06:11 2.63346 -158.63902 39855 ft 444 kts
2026-04-21 06:11 2.69522 -158.63540 39855 ft 445 kts
2026-04-21 06:12 2.75697 -158.63178 39855 ft 445 kts
2026-04-21 06:12 2.81877 -158.62815 39855 ft 445 kts
2026-04-21 06:13 2.88046 -158.62453 39856 ft 445 kts
2026-04-21 06:13 2.94237 -158.62090 39856 ft 445 kts
2026-04-21 06:14 3.00421 -158.61727 39856 ft 445 kts
2026-04-21 06:14 3.06551 -158.61367 39856 ft 445 kts
2026-04-21 06:15 3.12779 -158.61002 39856 ft 445 kts
2026-04-21 06:15 3.18959 -158.60639 39856 ft 445 kts
2026-04-21 06:16 3.25143 -158.60276 39857 ft 445 kts
2026-04-21 06:16 3.31285 -158.59915 39857 ft 445 kts
2026-04-21 06:17 3.37460 -158.59552 39857 ft 444 kts
2026-04-21 06:17 3.43636 -158.59189 39857 ft 444 kts
2026-04-21 06:18 3.49804 -158.58827 39858 ft 444 kts
2026-04-21 06:18 3.55978 -158.58464 39858 ft 444 kts
2026-04-21 06:19 3.62151 -158.58102 39858 ft 444 kts
2026-04-21 06:19 3.68321 -158.57739 39859 ft 444 kts
2026-04-21 06:20 3.74446 -158.57379 39859 ft 444 kts
2026-04-21 06:20 3.80618 -158.57016 39859 ft 444 kts
2026-04-21 06:21 3.86872 -158.56652 39852 ft 459 kts
2026-04-21 06:21 3.93359 -158.56279 39855 ft 473 kts
2026-04-21 06:22 3.99989 -158.55894 39854 ft 481 kts
2026-04-21 06:22 4.06699 -158.55500 39854 ft 485 kts
2026-04-21 06:23 4.13456 -158.55101 39854 ft 487 kts
2026-04-21 06:23 4.20223 -158.54700 39855 ft 487 kts
2026-04-21 06:24 4.26949 -158.54301 39855 ft 487 kts
2026-04-21 06:24 4.33721 -158.53900 39856 ft 487 kts
2026-04-21 06:25 4.40493 -158.53499 39856 ft 488 kts
2026-04-21 06:25 4.47269 -158.53099 39857 ft 488 kts
2026-04-21 06:26 4.54046 -158.52699 39857 ft 488 kts
2026-04-21 06:26 4.60827 -158.52299 39858 ft 488 kts
2026-04-21 06:27 4.67613 -158.51898 39858 ft 488 kts
2026-04-21 06:27 4.74407 -158.51498 39859 ft 489 kts
2026-04-21 06:28 4.81202 -158.51097 39859 ft 489 kts
2026-04-21 06:28 4.87999 -158.50696 39860 ft 489 kts
2026-04-21 06:29 4.94797 -158.50295 39861 ft 489 kts
2026-04-21 06:29 5.01599 -158.49894 39862 ft 490 kts
2026-04-21 06:30 5.08356 -158.49495 39862 ft 490 kts
2026-04-21 06:30 5.15165 -158.49093 39863 ft 490 kts
2026-04-21 06:31 5.21974 -158.48691 39864 ft 490 kts 360°
2026-04-21 06:31 5.28793 -158.48289 39865 ft 490 kts 360°
2026-04-21 06:32 5.35609 -158.47887 39865 ft 490 kts 360°
2026-04-21 06:32 5.42420 -158.47484 39866 ft 491 kts 360°
2026-04-21 06:33 5.49242 -158.47081 39867 ft 491 kts 360°
2026-04-21 06:33 5.56065 -158.46678 39868 ft 491 kts 360°
2026-04-21 06:34 5.62887 -158.46275 39869 ft 491 kts 360°
2026-04-21 06:34 5.69710 -158.45872 39870 ft 491 kts 360°
2026-04-21 06:35 5.76484 -158.45471 39870 ft 491 kts 360°
2026-04-21 06:35 5.83310 -158.45067 39871 ft 491 kts 360°
2026-04-21 06:36 5.90135 -158.44664 39872 ft 491 kts 360°
2026-04-21 06:36 5.96966 -158.44259 39873 ft 491 kts 360°
2026-04-21 06:37 6.03783 -158.43856 39874 ft 491 kts 360°
2026-04-21 06:37 6.10611 -158.43451 39875 ft 491 kts 359°
2026-04-21 06:38 6.17440 -158.43047 39876 ft 491 kts 360°
2026-04-21 06:38 6.21963 -158.42779 39877 ft 491 kts 360°
2026-04-21 06:39 6.30673 -158.42263 39878 ft 491 kts 359°
2026-04-21 06:39 6.37490 -158.41859 39879 ft 491 kts 359°
2026-04-21 06:40 6.44312 -158.41455 39880 ft 491 kts 359°
2026-04-21 06:40 6.51084 -158.41053 39881 ft 491 kts 359°
2026-04-21 06:41 6.57907 -158.40649 39882 ft 491 kts 359°
2026-04-21 06:41 6.64729 -158.40244 39894 ft 491 kts 359°
2026-04-21 06:42 6.71542 -158.39840 39907 ft 491 kts 359°
2026-04-21 06:42 6.78357 -158.39435 39909 ft 491 kts 359°
2026-04-21 06:43 6.85172 -158.39030 39910 ft 490 kts 359°
2026-04-21 06:43 6.91984 -158.38626 39911 ft 490 kts 359°
2026-04-21 06:44 6.98793 -158.38221 39912 ft 490 kts 359°
2026-04-21 06:44 7.05599 -158.37817 39913 ft 490 kts 359°
2026-04-21 06:45 7.12410 -158.37412 39914 ft 490 kts 359°
2026-04-21 06:45 7.19174 -158.37010 39915 ft 489 kts 358°
2026-04-21 06:46 7.25963 -158.36606 39916 ft 489 kts 358°
2026-04-21 06:46 7.32765 -158.36201 39917 ft 489 kts 358°